Effective Sunday, March 17, 2024, the National Weather Service National Data Buoy Center will discontinue its Dial-A-Buoy Interactive Voice Response system. For more information, see Service Change Notice 24-06 (PDF).

Station FMRF1 - 8725520 - Fort Myers, FL Image indicating link to RSS feed of recent meteorological observations for station FMRF1


Conditions at FMRF1 as of
(3:48 pm EST)
2048 GMT on 02/21/2024:
     

Click on the graph icon in the table below to see a time series plot of the last five days of that observation.

5-day plot - Wind Direction Wind Direction (WDIR): NE ( 50 deg true )
5-day plot - Wind Speed Wind Speed (WSPD): 6.0 kts
5-day plot - Wind Gust Wind Gust (GST): 9.9 kts
5-day plot - Atmospheric Pressure Atmospheric Pressure (PRES):30.18 in
5-day plot - Air Temperature Air Temperature (ATMP): 68.4 °F
5-day plot - Water Temperature Water Temperature (WTMP): 69.6 °F
5-day plot - Wind Speed at 10 Meters Wind Speed at 10 meters (WSPD10M): 7.8 kts
5-day plot - Wind Speed at 20 Meters Wind Speed at 20 meters (WSPD20M): 7.8 kts
5-day plot -  Wind Speed, Wind Gust and Atmospheric Pressure Combined plot of Wind Speed, Gust, and Air Pressure
NOS Water Level Observation Network Water Level
Previous observations
TIME
(EST)
5-day plot - Wind Direction
WDIR
 
5-day plot - Wind Speed
WSPD
kts
5-day plot - Wind Gust
GST
kts
5-day plot - Wave Height
WVHT
ft
5-day plot - Dominant Wave Period
DPD
sec
5-day plot - Average Wave Period
APD
sec
5-day plot - Mean Wave Direction
MWD
 
5-day plot - Atmospheric Pressure
PRES
in
5-day plot - Pressure Tendency
PTDY
in
5-day plot - Air Temperature
ATMP
°F
5-day plot - Water Temperature
WTMP
°F
5-day plot - Dew Point
DEWP
°F
5-day plot - Salinity
SAL
psu
5-day plot - Visibility
VIS
nmi
5-day plot - Tide (above MLLW)
TIDE
ft
2024-02-21 03:42 pmNNE 8.0 11.1----30.19- 68.2 69.6----
2024-02-21 03:36 pmNNE 4.1 7.0----30.18- 68.2 69.6----
2024-02-21 03:30 pmNNE 7.0 9.9----30.19- 67.8 69.4----
2024-02-21 03:24 pmNNE 7.0 8.9----30.19- 68.0 69.4----
2024-02-21 03:18 pm N 7.0 11.1----30.19- 68.0 69.4----
2024-02-21 03:12 pm N 8.9 13.0----30.19- 68.0 69.4----
2024-02-21 03:06 pmNNE 8.9 18.1----30.19- 67.6 69.4----
2024-02-21 03:00 pm N 5.1 8.0----30.18-0.10 67.8 69.4----
2024-02-21 02:54 pm NE 8.0 11.1----30.19- 67.5 69.4----
2024-02-21 02:48 pmNNE 8.0 12.0----30.19- 67.5 69.4----
2024-02-21 02:42 pm NE 7.0 8.9----30.19- 67.5 69.4----
2024-02-21 02:36 pm NE 8.0 12.0----30.19- 67.1 69.3----
2024-02-21 02:30 pm NE 8.9 12.0----30.20- 67.1 69.3----
2024-02-21 02:24 pm NE 6.0 9.9----30.20- 67.1 69.3----
2024-02-21 02:18 pmNNE 5.1 11.1----30.20- 66.9 69.3----
2024-02-21 02:12 pm N 7.0 11.1----30.20- 66.7 69.1----
2024-02-21 02:06 pmNNE 6.0 11.1----30.20- 66.6 69.1----
2024-02-21 02:00 pmNNE 8.9 12.0----30.21-0.09 66.4 68.7----
2024-02-21 01:54 pmNNE 7.0 9.9----30.22- 66.4 68.7----
2024-02-21 01:48 pmNNE 4.1 8.0----30.22- 66.4 68.9----
2024-02-21 01:42 pmNNE 8.0 12.0----30.22- 66.0 68.9----
2024-02-21 01:36 pm N 11.1 19.0----30.22- 66.4 68.9----
2024-02-21 01:30 pm N 8.0 11.1----30.22- 66.2 68.9----
2024-02-21 01:24 pmNNE 7.0 11.1----30.23- 66.0 68.5----
2024-02-21 01:18 pmNNE 7.0 9.9----30.23- 65.8 68.5----
2024-02-21 01:12 pmNNE 7.0 11.1----30.24- 65.8 68.5----
2024-02-21 01:06 pmNNE 6.0 11.1----30.24- 65.7 68.4----
2024-02-21 01:00 pmNNE 8.9 12.0----30.24-0.05 65.3 68.4----
2024-02-21 12:54 pmNNE 6.0 9.9----30.25- 65.3 68.0----
2024-02-21 12:48 pm NE 6.0 8.0----30.25- 65.1 68.4----
2024-02-21 12:42 pm NE 4.1 6.0----30.25- 65.1 68.2----
2024-02-21 12:36 pm N 6.0 8.0----30.26- 64.9 68.0----
2024-02-21 12:30 pm NE 6.0 8.0----30.26- 64.4 68.0----
2024-02-21 12:24 pm NE 5.1 8.0----30.27- 64.2 68.0----
2024-02-21 12:18 pm NE 7.0 8.0----30.27- 64.0 68.2----
2024-02-21 12:12 pm N 7.0 8.9----30.27- 64.2 68.2----
2024-02-21 12:06 pm NE 6.0 8.9----30.27- 64.2 68.0----
2024-02-21 12:00 pmNNE 5.1 7.0----30.28+0.00 64.0 67.8----
2024-02-21 11:54 am N 6.0 8.9----30.28- 64.0 68.0----
2024-02-21 11:48 am NE 5.1 8.0----30.29- 63.3 67.6----
2024-02-21 11:42 amNNE 5.1 7.0----30.29- 63.3 67.6----
2024-02-21 11:36 am NE 6.0 8.0----30.29- 63.1 67.5----
2024-02-21 11:30 amNNE 5.1 8.0----30.29- 63.3 67.5----
2024-02-21 11:24 amNNE 7.0 9.9----30.29- 62.8 67.3----
2024-02-21 11:18 am NE 6.0 9.9----30.30- 62.8 67.1----
2024-02-21 11:12 am NE 7.0 8.9----30.30- 62.6 67.1----
2024-02-21 11:06 amNNE 7.0 8.9----30.30- 62.4 66.9----
2024-02-21 11:00 amNNE 7.0 11.1----30.30+0.02 62.2 66.7----
2024-02-21 10:54 am NE 7.0 9.9----30.30- 61.9 66.7----
2024-02-21 10:48 am NE 7.0 8.9----30.29- 61.3 66.9----
2024-02-21 10:42 am NE 7.0 8.9----30.30- 61.2 66.9----
2024-02-21 10:36 amNNE 7.0 8.9----30.30- 61.0 66.9----
2024-02-21 10:30 amNNE 5.1 7.0----30.30- 60.6 66.9----
2024-02-21 10:24 amNNE 5.1 8.0----30.30- 60.1 66.7----
2024-02-21 10:18 am N 6.0 8.9----30.30- 59.7 66.7----
2024-02-21 10:12 am NE 5.1 8.0----30.30- 59.4 66.7----
2024-02-21 10:06 am N 6.0 8.0----30.29- 59.4 66.7----
2024-02-21 10:00 am N 5.1 6.0----30.29+0.03- 66.6----
2024-02-21 09:54 am N 4.1 6.0----30.29-- 66.6----
2024-02-21 09:48 am N 6.0 7.0----30.29- 58.3 66.6----
2024-02-21 09:42 amNNE 4.1 6.0----30.29- 57.9 66.4----
2024-02-21 09:36 am N 5.1 7.0----30.29- 57.6 66.4----
2024-02-21 09:30 am N 6.0 7.0----30.29- 57.2 66.4----
2024-02-21 09:24 am N 5.1 7.0----30.29- 57.2 66.4----
2024-02-21 09:18 am N 6.0 8.0----30.29- 56.1 66.4----
2024-02-21 09:12 amNNE 5.1 8.0----30.29- 55.9 66.6----
2024-02-21 09:06 am N 6.0 8.0----30.28- 55.8 66.6----
2024-02-21 09:00 amNNE 7.0 8.9----30.28+0.04 55.4 66.7----
2024-02-21 08:54 am N 7.0 9.9----30.28- 55.2 66.7----
2024-02-21 08:48 amNNE 6.0 8.0----30.28- 54.9 66.7----
2024-02-21 08:42 amNNE 6.0 8.0----30.28- 54.5 66.7----
2024-02-21 08:36 amNNE 7.0 8.9----30.28- 54.3 66.9----
2024-02-21 08:30 amNNE 5.1 7.0----30.28- 54.1 66.9----
2024-02-21 08:24 amNNE 5.1 6.0----30.28- 54.3 66.9----
2024-02-21 08:18 am N 5.1 8.0----30.28- 54.5 66.9----
2024-02-21 08:12 am N 5.1 6.0----30.28- 54.1 66.9----
2024-02-21 08:06 am N 5.1 8.0----30.28- 54.0 66.9----
2024-02-21 08:00 amNNE 6.0 8.9----30.28+0.05 53.1 66.9----
2024-02-21 07:54 amNNE 7.0 9.9----30.28- 53.1 66.9----
2024-02-21 07:48 am N 7.0 8.9----30.28- 53.1 66.9----
2024-02-21 07:42 am N 7.0 8.9----30.28- 52.7 66.9----
2024-02-21 07:36 am N 6.0 8.9----30.28- 52.5 66.9----
2024-02-21 07:30 am N 7.0 9.9----30.28- 52.2 66.9----
2024-02-21 07:24 am N 6.0 8.9----30.27- 52.0 66.9----
2024-02-21 07:18 am N 7.0 8.9----30.27- 51.6 66.9----
2024-02-21 07:12 am N 7.0 8.9----30.27- 51.4 66.9----
2024-02-21 07:06 am N 7.0 9.9----30.27- 51.4 67.1----
2024-02-21 07:00 amNNW 7.0 8.9----30.27+0.05 51.4 67.1----
2024-02-21 06:54 amNNW 6.0 8.0----30.27- 51.8 67.1----
2024-02-21 06:48 amNNW 8.0 8.9----30.27- 51.4 67.1----
2024-02-21 06:42 amNNW 8.0 8.9----30.27- 51.4 67.1----
2024-02-21 06:36 amNNW 7.0 9.9----30.26- 51.8 67.1----
2024-02-21 06:30 amNNW 8.9 11.1----30.26- 51.4 67.1----
2024-02-21 06:24 amNNW 8.9 9.9----30.26- 51.6 67.1----
2024-02-21 06:18 amNNW 8.9 11.1----30.25- 51.8 67.3----
2024-02-21 06:12 amNNW 8.0 9.9----30.25- 52.0 67.6----
2024-02-21 06:06 am NW 8.9 11.1----30.24- 52.2 67.8----
2024-02-21 06:00 am NW 8.0 9.9----30.24+0.00 52.0 67.8----
2024-02-21 05:54 amNNW 8.9 9.9----30.24- 51.8 67.8----
2024-02-21 05:48 amNNW 8.0 9.9----30.24- 52.0 67.8----
2024-02-21 05:42 amNNW 8.0 8.9----30.24- 52.0 67.8----
2024-02-21 05:36 amNNW 8.0 8.9----30.24- 52.0 67.8----
2024-02-21 05:30 am NW 8.0 8.9----30.24- 52.0 68.0----
2024-02-21 05:24 am NW 7.0 8.0----30.24- 52.5 68.0----
2024-02-21 05:18 amNNW 7.0 8.0----30.23- 52.2 68.0----
2024-02-21 05:12 amNNW 7.0 8.0----30.23- 52.3 68.0----
2024-02-21 05:06 amNNW 6.0 8.0----30.23- 52.2 68.0----
2024-02-21 05:00 am NW 7.0 8.9----30.23-0.03 52.2 68.0----
2024-02-21 04:54 am NW 7.0 8.0----30.23- 52.5 68.0----
2024-02-21 04:48 am NW 6.0 8.0----30.23- 52.5 68.2----
2024-02-21 04:42 amNNW 6.0 8.0----30.23- 52.3 68.2----
2024-02-21 04:36 amNNW 7.0 8.9----30.23- 52.3 68.2----
2024-02-21 04:30 amNNW 7.0 8.9----30.22- 52.0 68.2----
2024-02-21 04:24 amNNW 7.0 8.0----30.22- 52.3 68.2----
2024-02-21 04:18 amNNW 7.0 8.9----30.22- 52.2 68.2----
2024-02-21 04:12 amNNW 6.0 7.0----30.22- 52.3 68.4----
2024-02-21 04:06 amNNW 6.0 8.0----30.22- 52.0 68.4----
2024-02-21 04:00 am N 4.1 6.0----30.22-0.04 52.3 68.4----
2024-02-21 03:54 amNNW 5.1 7.0----30.22- 52.5 68.4----
2024-02-21 03:48 amNNW 5.1 7.0----30.22- 52.5 68.4----
2024-02-21 03:42 amNNW 5.1 6.0----30.22- 52.9 68.4----
2024-02-21 03:36 amNNW 5.1 6.0----30.22- 52.7 68.4----
2024-02-21 03:30 amNNW 5.1 6.0----30.22- 53.1 68.5----
2024-02-21 03:24 amNNW 5.1 6.0----30.23- 53.1 68.5----
2024-02-21 03:18 amNNW 5.1 7.0----30.23- 53.2 68.5----
2024-02-21 03:12 amNNW 5.1 6.0----30.23- 53.1 68.5----
2024-02-21 03:06 amNNW 5.1 7.0----30.23- 53.1 68.5----
2024-02-21 03:00 amNNW 6.0 7.0----30.24-0.03 53.2 68.5----
2024-02-21 02:54 amNNW 6.0 7.0----30.24- 53.2 68.5----
2024-02-21 02:48 amNNW 5.1 6.0----30.24- 53.6 68.7----
2024-02-21 02:42 amNNW 5.1 6.0----30.24- 53.2 68.7----
2024-02-21 02:36 am N 5.1 7.0----30.24- 53.2 68.7----
2024-02-21 02:30 amNNW 5.1 7.0----30.24- 53.4 68.7----
2024-02-21 02:24 amNNW 5.1 7.0----30.25- 53.4 68.7----
2024-02-21 02:18 amNNW 5.1 7.0----30.25- 53.6 68.7----
2024-02-21 02:12 amNNW 5.1 7.0----30.25- 53.6 68.7----
2024-02-21 02:06 amNNW 5.1 7.0----30.26- 53.4 68.7----
2024-02-21 02:00 amNNW 4.1 6.0----30.26-0.01- 68.7----
2024-02-21 01:54 amNNW 4.1 7.0----30.26-- 68.7----
2024-02-21 01:48 amNNW 4.1 6.0----30.26- 54.0 68.9----
2024-02-21 01:42 amNNW 5.1 6.0----30.26- 54.0 68.9----
2024-02-21 01:36 amNNW 4.1 7.0----30.26- 53.8 68.9----
2024-02-21 01:30 amNNW 4.1 6.0----30.26- 54.0 68.9----
2024-02-21 01:24 amNNW 5.1 6.0----30.26- 54.1 68.9----
2024-02-21 01:18 amNNW 4.1 5.1----30.26- 54.1 68.9----
2024-02-21 01:12 amNNW 5.1 7.0----30.26- 54.5 68.9----
2024-02-21 01:06 amNNW 4.1 6.0----30.26- 54.3 68.9----
2024-02-21 01:00 amNNW 5.1 7.0----30.26+0.00 54.5 68.9----
2024-02-21 12:54 amNNW 4.1 7.0----30.26- 54.3 68.9----
2024-02-21 12:48 amNNW 5.1 6.0----30.26- 54.5 68.9----
2024-02-21 12:42 amNNW 5.1 7.0----30.26- 54.7 69.1----
2024-02-21 12:36 amNNW 6.0 7.0----30.26- 54.9 69.1----
2024-02-21 12:30 amNNW 5.1 7.0----30.27- 55.2 69.1----
2024-02-21 12:24 amNNW 5.1 8.0----30.27- 55.2 69.1----
2024-02-21 12:18 am N 6.0 8.0----30.27- 55.4 69.1----
2024-02-21 12:12 am N 5.1 8.0----30.27- 55.6 69.1----
2024-02-21 12:06 am N 5.1 6.0----30.27- 55.0 69.1----
2024-02-21 12:00 amNNW 5.1 8.0----30.27+0.00 55.2 69.1----
2024-02-20 11:54 pmNNW 5.1 6.0----30.27- 55.4 69.3----
2024-02-20 11:48 pmNNW 4.1 5.1----30.27- 55.6 69.3----
2024-02-20 11:42 pmNNW 4.1 6.0----30.27- 55.8 69.3----
2024-02-20 11:36 pmNNW 4.1 5.1----30.27- 55.9 69.3----
2024-02-20 11:30 pmNNW 4.1 5.1----30.27- 55.9 69.3----
2024-02-20 11:24 pm N 4.1 8.0----30.27- 56.1 69.3----
2024-02-20 11:18 pmNNW 5.1 8.0----30.27- 56.3 69.3----
2024-02-20 11:12 pm N 4.1 7.0----30.27- 56.5 69.3----
2024-02-20 11:06 pmNNW 5.1 7.0----30.27- 56.5 69.4----
2024-02-20 11:00 pmNNW 5.1 6.0----30.27+0.02 56.5 69.4----
2024-02-20 10:54 pmNNW 4.1 7.0----30.27- 56.7 69.4----
2024-02-20 10:48 pmNNW 4.1 7.0----30.27- 56.7 69.4----
2024-02-20 10:42 pm N 5.1 6.0----30.26- 56.7 69.4----
2024-02-20 10:36 pmNNW 2.9 4.1----30.26- 56.7 69.4----
2024-02-20 10:30 pmNNW 1.9 4.1----30.26- 57.0 69.4----
2024-02-20 10:24 pmNNW 1.9 5.1----30.26- 56.8 69.4----
2024-02-20 10:18 pm N 2.9 5.1----30.25- 57.0 69.6----
2024-02-20 10:12 pmNNW 2.9 5.1----30.25- 57.2 69.6----
2024-02-20 10:06 pmNNW 4.1 7.0----30.26- 57.4 69.6----
2024-02-20 10:00 pmNNW 6.0 8.0----30.26+0.02 57.4 69.6----
2024-02-20 09:54 pmNNW 7.0 8.0----30.26- 57.7 69.6----
2024-02-20 09:48 pm NW 7.0 8.9----30.26- 58.1 69.6----
2024-02-20 09:42 pm NW 7.0 8.9----30.26- 57.9 69.6----
2024-02-20 09:36 pmNNW 6.0 8.9----30.27- 57.7 69.6----
2024-02-20 09:30 pmNNW 6.0 8.9----30.27- 57.7 69.6----
2024-02-20 09:24 pmNNW 6.0 8.0----30.27- 58.3 69.8----
2024-02-20 09:18 pm NW 6.0 8.0----30.27- 58.3 69.8----
2024-02-20 09:12 pm NW 7.0 8.9----30.27- 58.3 69.8----
2024-02-20 09:06 pm NW 8.0 11.1----30.27- 58.6 69.8----
2024-02-20 09:00 pm NW 8.0 12.0----30.27+0.05 59.0 69.8----
2024-02-20 08:54 pm NW 8.9 12.0----30.26- 59.5 69.8----
2024-02-20 08:48 pm NW 8.9 12.0----30.26- 59.4 69.8----
2024-02-20 08:42 pmWNW 9.9 12.0----30.26- 59.5 69.8----
2024-02-20 08:36 pmWNW 9.9 13.0----30.26- 59.7 69.8----
2024-02-20 08:30 pmWNW 9.9 12.0----30.26- 59.9 70.0----
2024-02-20 08:24 pmWNW 9.9 12.0----30.26- 60.1 70.0----
2024-02-20 08:18 pmWNW 9.9 12.0----30.26- 60.1 70.0----
2024-02-20 08:12 pmWNW 9.9 13.0----30.26- 59.9 70.0----
2024-02-20 08:06 pmWNW 9.9 12.0----30.25- 60.3 70.0----
2024-02-20 08:00 pmWNW 11.1 13.0----30.25+0.04 60.4 70.0----
2024-02-20 07:54 pmWNW 9.9 13.0----30.25- 60.4 70.0----
2024-02-20 07:48 pmWNW 11.1 13.0----30.24- 60.6 70.0----
2024-02-20 07:42 pmWNW 9.9 12.0----30.24- 60.8 70.0----
2024-02-20 07:36 pmWNW 9.9 12.0----30.24- 60.8 70.0----
2024-02-20 07:30 pmWNW 11.1 12.0----30.24- 61.0 70.0----
2024-02-20 07:24 pmWNW 9.9 12.0----30.24- 60.8 70.0----
2024-02-20 07:18 pmWNW 8.0 12.0----30.23- 61.3 70.0----
2024-02-20 07:12 pmWNW 8.9 11.1----30.23- 61.3 70.0----
2024-02-20 07:06 pmWNW 8.0 11.1----30.23- 61.3 70.0----
2024-02-20 07:00 pmWNW 8.9 11.1----30.23+0.02 61.5 70.0----
2024-02-20 06:54 pmWNW 8.0 11.1----30.23- 61.9 70.0----
2024-02-20 06:48 pm W 8.9 11.1----30.23- 61.7 70.0----
2024-02-20 06:42 pm W 8.0 9.9----30.23- 61.9 69.8----
2024-02-20 06:36 pm W 8.9 12.0----30.23- 62.1 70.0----
2024-02-20 06:30 pmWNW 8.9 12.0----30.22- 62.4 70.0----
2024-02-20 06:24 pmWNW 9.9 11.1----30.22- 62.6 70.0----
2024-02-20 06:00 pm W 11.1 13.0----30.22+0.00 64.2 69.8----
2024-02-20 05:54 pmWNW 11.1 13.0----30.22- 64.2 70.0----
2024-02-20 05:48 pmWNW 9.9 12.0----30.21- 64.6 70.0----
2024-02-20 05:42 pm W 9.9 13.0----30.21- 64.6 69.8----
2024-02-20 05:36 pmWNW 11.1 14.0----30.21- 64.9 69.8----
2024-02-20 05:30 pmWNW 12.0 15.0----30.21- 64.9 69.8----
2024-02-20 05:24 pmWNW 12.0 15.0----30.21- 65.1 69.8----
2024-02-20 05:18 pmWNW 13.0 15.0----30.22- 65.3 70.0----
2024-02-20 05:12 pm W 12.0 14.0----30.21- 65.1 70.0----
2024-02-20 05:06 pm W 9.9 13.0----30.21- 65.7 70.0----
2024-02-20 05:00 pm W 9.9 14.0----30.21-0.02 65.7 70.0----
2024-02-20 04:54 pmWNW 12.0 14.0----30.22- 65.7 70.2----
2024-02-20 04:48 pm W 12.0 15.0----30.22- 65.5 70.2----
2024-02-20 04:42 pm W 12.0 15.9----30.21- 65.7 70.2----
2024-02-20 04:36 pm W 12.0 14.0----30.22- 66.0 70.3----
2024-02-20 04:30 pmWNW 12.0 15.0----30.22- 66.2 70.3----
2024-02-20 04:24 pm W 11.1 15.9----30.21- 66.4 70.3----
2024-02-20 04:18 pm W 11.1 14.0----30.21- 66.2 70.3----
2024-02-20 04:12 pm W 11.1 15.0----30.21- 66.9 70.3----
2024-02-20 04:06 pmWNW 11.1 13.0----30.21- 66.9 70.2----
2024-02-20 04:00 pmWNW 11.1 13.0----30.21-0.05 66.9 70.2----
2024-02-20 03:54 pmWNW 11.1 14.0----30.22- 66.9 70.2----